Date String (YYYY-MM-DD hh:mm:ss) UTC,Instrument flags,Ambient pressure (hPa),Sample flow (lpm),Bypass flow (lpm),Sample temperature (°C),Ambient temperature (°C),ASC tube jacket temperature (°C),LED temperature (°C),Box temperature (°C),Sample RH (%),Span deviation,Mass concentration (μg/m³),Mass concentration (μg/m³),Mass concentration (μg/m³)
DateTimeUTC,F1_M11,P_M11,Q1_M11,Q2_M11,T1_M11,T2_M11,T3_M11,T4_M11,T5_M11,U1_M11,ZSPAN_M11,X0_M11,X2_M11,X1_M11
2022-07-08 05:00:00,,0832.6,4.99,0.00,29.5,27.6,00.0,38.3,31.3,32.8,0000.0,0010.05,0004.51,0003.69
2022-07-08 05:01:00,,0832.6,5.00,0.00,29.5,27.7,00.0,38.3,31.4,32.8,0000.0,0010.14,0004.53,0003.69
2022-07-08 05:02:00,,0832.6,5.00,0.00,29.5,27.9,00.0,38.3,31.4,32.7,0000.0,0009.99,0004.53,0003.69
2022-07-08 05:03:00,,0832.6,5.01,0.00,29.5,28.0,00.0,38.3,31.4,32.7,0000.0,0009.81,0004.50,0003.70
2022-07-08 05:04:00,,0832.6,5.00,0.00,29.5,28.1,00.0,38.3,31.4,32.8,0000.0,0009.72,0004.49,0003.70
2022-07-08 05:05:00,,0832.6,5.01,0.00,29.6,28.2,00.0,38.3,31.5,32.6,0000.0,0009.81,0004.48,0003.68
2022-07-08 05:06:00,,0832.6,5.00,0.00,29.6,28.3,00.0,38.3,31.5,32.5,0000.0,0010.17,0004.44,0003.67
2022-07-08 05:07:00,,0832.6,5.00,0.00,29.6,28.4,00.0,38.4,31.5,32.5,0000.0,0010.41,0004.43,0003.66
2022-07-08 05:08:00,,0832.6,5.00,0.00,29.6,28.5,00.0,38.4,31.6,32.4,0000.0,0009.74,0004.41,0003.65
2022-07-08 05:09:00,,0832.6,5.00,0.00,29.7,28.5,00.0,38.4,31.6,32.3,0000.0,0010.47,0004.40,0003.65
2022-07-08 05:10:00,,0832.6,4.99,0.00,29.7,28.6,00.0,38.4,31.7,32.2,0000.0,0010.59,0004.39,0003.65
2022-07-08 05:11:00,,0832.7,5.00,0.00,29.7,28.6,00.0,38.4,31.7,32.3,0000.0,0010.05,0004.39,0003.66
2022-07-08 05:12:00,,0832.7,5.00,0.00,29.7,28.7,00.0,38.5,31.8,32.3,0000.0,0010.03,0004.37,0003.68
2022-07-08 05:13:00,,0832.7,5.00,0.00,29.8,28.7,00.0,38.5,31.7,32.2,0000.0,0010.11,0004.37,0003.68
2022-07-08 05:14:00,,0832.7,5.00,0.00,29.8,28.5,00.0,38.5,31.7,32.2,0000.0,0010.44,0004.40,0003.69
2022-07-08 05:15:00,,0832.7,5.02,0.00,29.8,27.8,00.0,38.4,31.6,32.2,0000.0,0011.10,0004.44,0003.70
2022-07-08 05:16:00,,0832.7,5.00,0.00,29.7,27.4,00.0,38.4,31.5,32.2,0000.0,0011.70,0004.46,0003.72
2022-07-08 05:17:00,,0832.7,5.00,0.00,29.7,27.3,00.0,38.4,31.4,32.3,0000.0,0011.52,0004.43,0003.73
2022-07-08 05:18:00,,0832.7,5.00,0.00,29.6,27.4,00.0,38.4,31.4,32.3,0000.0,0011.24,0004.48,0003.73
2022-07-08 05:19:00,,0832.7,4.99,0.00,29.6,27.5,00.0,38.4,31.4,32.6,0000.0,0011.34,0004.52,0003.74
2022-07-08 05:20:00,,0832.7,4.99,0.00,29.5,27.7,00.0,38.4,31.4,32.6,0000.0,0010.66,0004.55,0003.76
2022-07-08 05:21:00,,0832.7,5.00,0.00,29.5,27.8,00.0,38.4,31.4,32.6,0000.0,0010.34,0004.55,0003.76
2022-07-08 05:22:00,,0832.7,5.00,0.00,29.5,27.9,00.0,38.4,31.4,32.5,0000.0,0010.42,0004.58,0003.76
2022-07-08 05:23:00,,0832.7,5.01,0.00,29.6,28.0,00.0,38.4,31.4,32.4,0000.0,0010.32,0004.60,0003.77
2022-07-08 05:24:00,,0832.7,5.00,0.00,29.6,28.2,00.0,38.4,31.5,32.4,0000.0,0010.33,0004.59,0003.77
2022-07-08 05:25:00,,0832.7,5.00,0.00,29.6,28.3,00.0,38.4,31.5,32.4,0000.0,0010.16,0004.58,0003.77
2022-07-08 05:26:00,,0832.7,5.00,0.00,29.6,28.3,00.0,38.4,31.5,32.3,0000.0,0009.52,0004.57,0003.77
2022-07-08 05:27:00,,0832.7,5.00,0.00,29.6,28.4,00.0,38.4,31.6,32.2,0000.0,0009.44,0004.52,0003.77
2022-07-08 05:28:00,,0832.7,4.99,0.00,29.7,28.5,00.0,38.4,31.6,32.2,0000.0,0010.10,0004.55,0003.77
2022-07-08 05:29:00,,0832.7,5.01,0.00,29.7,28.5,00.0,38.4,31.7,32.1,0000.0,0010.10,0004.49,0003.77
2022-07-08 05:30:00,,0832.7,5.00,0.00,29.7,28.6,00.0,38.4,31.7,32.1,0000.0,0010.05,0004.46,0003.76
2022-07-08 05:31:00,,0832.7,5.00,0.00,29.7,28.7,00.0,38.4,31.7,32.1,0000.0,0010.00,0004.43,0003.74
2022-07-08 05:32:00,,0832.7,5.01,0.00,29.8,28.7,00.0,38.5,31.7,31.9,0000.0,0010.00,0004.42,0003.73
2022-07-08 05:33:00,,0832.7,5.00,0.00,29.8,28.8,00.0,38.5,31.8,32.1,0000.0,0009.96,0004.39,0003.72
2022-07-08 05:34:00,,0832.7,5.00,0.00,29.8,28.8,00.0,38.5,31.8,32.0,0000.0,0009.86,0004.34,0003.70
2022-07-08 05:35:00,,0832.7,5.01,0.00,29.8,28.7,00.0,38.5,31.8,31.8,0000.0,0009.71,0004.33,0003.68
2022-07-08 05:36:00,,0832.7,5.00,0.00,29.8,28.1,00.0,38.5,31.7,31.9,0000.0,0009.87,0004.36,0003.68
2022-07-08 05:37:00,,0832.7,5.00,0.00,29.8,27.5,00.0,38.4,31.7,32.0,0000.0,0009.97,0004.32,0003.67
2022-07-08 05:38:00,,0832.7,5.01,0.00,29.8,27.4,00.0,38.4,31.5,32.0,0000.0,0009.28,0004.30,0003.64
2022-07-08 05:39:00,,0832.7,5.00,0.00,29.7,27.4,00.0,38.4,31.4,32.1,0000.0,0008.97,0004.29,0003.62
2022-07-08 05:40:00,,0832.7,5.00,0.00,29.6,27.5,00.0,38.4,31.4,32.2,0000.0,0008.96,0004.31,0003.61
2022-07-08 05:41:00,,0832.7,5.00,0.00,29.6,27.7,00.0,38.4,31.4,32.3,0000.0,0008.96,0004.32,0003.59
2022-07-08 05:42:00,,0832.8,4.99,0.00,29.6,27.8,00.0,38.4,31.4,32.4,0000.0,0009.00,0004.33,0003.58
2022-07-08 05:43:00,,0832.8,5.01,0.00,29.6,27.9,00.0,38.4,31.4,32.4,0000.0,0009.16,0004.35,0003.56
2022-07-08 05:44:00,,0832.7,5.00,0.00,29.6,28.1,00.0,38.4,31.5,32.4,0000.0,0009.40,0004.32,0003.54
2022-07-08 05:45:00,,0832.8,5.00,0.00,29.6,28.2,00.0,38.4,31.5,32.4,0000.0,0009.57,0004.31,0003.53
2022-07-08 05:46:00,,0832.8,4.99,0.00,29.6,28.3,00.0,38.4,31.5,32.3,0000.0,0009.71,0004.32,0003.52
2022-07-08 05:47:00,,0832.7,4.99,0.00,29.6,28.4,00.0,38.4,31.6,32.3,0000.0,0009.45,0004.25,0003.49
2022-07-08 05:48:00,,0832.8,5.00,0.00,29.7,28.4,00.0,38.4,31.6,32.3,0000.0,0009.56,0004.26,0003.48
2022-07-08 05:49:00,,0832.7,5.01,0.00,29.7,28.5,00.0,38.4,31.7,32.2,0000.0,0009.66,0004.25,0003.46
2022-07-08 05:50:00,,0832.7,5.00,0.00,29.7,28.6,00.0,38.5,31.7,32.2,0000.0,0009.05,0004.20,0003.45
2022-07-08 05:51:00,,0832.8,5.00,0.00,29.8,28.6,00.0,38.5,31.7,32.1,0000.0,0008.96,0004.19,0003.44
2022-07-08 05:52:00,,0832.9,5.01,0.00,29.8,28.7,00.0,38.5,31.8,32.0,0000.0,0008.90,0004.17,0003.44
2022-07-08 05:53:00,,0832.9,5.00,0.00,29.8,28.7,00.0,38.5,31.8,32.0,0000.0,0008.85,0004.16,0003.45
2022-07-08 05:54:00,,0832.8,4.99,0.00,29.8,28.8,00.0,38.5,31.8,32.0,0000.0,0008.63,0004.11,0003.45
2022-07-08 05:55:00,,0832.8,5.00,0.00,29.9,28.8,00.0,38.6,31.9,31.9,0000.0,0008.49,0004.12,0003.45
2022-07-08 05:56:00,,0832.8,5.01,0.00,29.9,28.9,00.0,38.6,31.9,31.8,0000.0,0008.41,0004.13,0003.45
2022-07-08 05:57:00,,0832.9,5.00,0.00,29.9,28.9,00.0,38.6,31.9,31.8,0000.0,0008.43,0004.10,0003.46
2022-07-08 05:58:00,,0832.9,5.00,0.00,29.9,28.5,00.0,38.6,31.9,31.7,0000.0,0009.18,0004.11,0003.46
2022-07-08 05:59:00,,0832.8,5.00,0.00,29.9,27.8,00.0,38.5,31.7,31.9,0000.0,0009.06,0004.13,0003.46
